User: anonymous   Login
Location: Fisheating Creek Campgrounds
(26.9333°N, 81.3167°W)
Time: 10:16:43
(UTC-04:00)
Language:

Cosmos 2221 Rocket - Orbit

View from above orbital plane
View from above orbital plane
View from above satellite
View from above satellite

Ground track
Ground track

The orbit data is extracted from the following two-line orbital elements,

1 22237U 92080B   15247.85315089  .00000136  00000-0  15538-4 0  9999
2 22237  82.5147   3.5567 0020015 170.9984 305.0883 14.78173611227217
Epoch (UTC): 04 September 2015 20:28:32
Eccentricity: 0.0020015
inclination: 82.5147°
perigee height: 621 km
apogee height: 649 km
right ascension of ascending node: 3.5567°
argument of perigee: 170.9984°
revolutions per day: 14.78173611
mean anomaly at epoch: 305.0883°
orbit number at epoch: 22721

The dashed part of the orbit path shows where the satellite is in the earth's shadow,  

DLR